Terminal Aerodrome Forecast
Issued by NWS Grand Forks, ND

Home | Current Version | Previous Version | Graphics & Text | Print | Product List | Glossary On
Versions: 1 2 3 4 5 6 7 8 9 10 11 12 13 14 15 16 17 18 19
310
FTUS43 KFGF 251123
TAFFAR
TAF
KFAR 251123Z 2512/2612 14014G22KT P6SM SCT250
     FM251700 18018G28KT P6SM BKN070
     FM252300 17013G20KT P6SM BKN090
     FM260300 15009KT P6SM BKN100=

USA.gov is the U.S. government's official web portal to all federal, state and local government web resources and services.